Location: Brantley
(31.5822°N, 86.2569°W)
Time: 17:12:16
(UTC+00:00)

Injun/Solrad 3 - Pass Details

Date: 16 February 2026
Orbit: 871 x 985 km, 66.8° (Epoch: 11 March)

Event Time Altitude Azimuth Distance (km) Brightness Sun altitude
Rises 15:45:41 0° 173° (S) 3,445 11.6 35.8°
Reaches altitude 10° 15:48:33 10° 160° (SSE) 2,508 11.3 36.2°
Maximum altitude 15:53:10 25° 106° (ESE) 1,678 10.5 36.9°
Drops below altitude 10° 15:57:50 10° 53° (NE) 2,533 10.3 37.5°
Sets 16:00:44 0° 41° (NE) 3,487 10.8 37.9°
